Statesville, NC

9:23 PM EDT on June 24, 2017 (GMT -0400)
Statesville Municipal

Weather History for KSVH - February, 2013

Change the Weather History Date:

Thursday, February 7, 2013

  Actual Average (KHKY) Record (KHKY)
Temperature  
Mean Temperature 38 °F -  
Max Temperature 41 °F 49 °F 70 °F (1999)
Min Temperature 36 °F 28 °F 9 °F (1988)
Degree Days  
Heating Degree Days 26    
Moisture  
Dew Point 31 °F    
Average Humidity 78    
Maximum Humidity 97    
Minimum Humidity 49    
Precipitation  
Precipitation 0.33 in - - ()
Sea Level Pressure  
Sea Level Pressure 30.19 in    
Wind  
Wind Speed 8 mph (NNE)    
Max Wind Speed 13 mph    
Max Gust Speed 20 mph    
Visibility 7 miles    
Events Rain    
Averages and records for this station are not official NWS values.
T = Trace of Precipitation, MM = Missing Value Source: NWS Daily Summary

Daily Weather History Graph

Daily Weather History Graph

Search for Another Location

Airport or City:

Trip Planner

Search our weather history database for the weather conditions in past years. The results will help you decide how hot, cold, wet, or windy it might be!

Date:

Astronomy

Feb. 07, 2013 Rise Set
Actual Time 7:18 AM EST 5:57 PM EST
Civil Twilight 6:52 AM EST 6:24 PM EST
Nautical Twilight 6:21 AM EST 6:54 PM EST
Astronomical Twilight 5:52 AM EST 7:24 PM EST
Moon 4:53 AM EST (2/7) 3:23 PM EST (2/7)
Length of Visible Light 11h 32m
Length of Day
10h 39m
Waning Crescent, 9% of the Moon is Illuminated
Feb 7
Waning Crescent
Feb 10
New
Feb 17
First Quarter
Feb 25
Full
Mar 4
Last Quarter

Hourly Weather History & Observations

Time (EST) Temp. Windchill Dew Point Humidity Pressure Visibility Wind Dir Wind Speed Gust Speed Precip Events Conditions
12:15 AM 41.2 °F 37.3 °F 23.9 °F 50% 30.22 in 10.0 mi NE 5.8 mph - N/A   Clear
12:35 AM 41.2 °F 37.3 °F 23.4 °F 49% 30.22 in 10.0 mi NNE 5.8 mph - N/A   Clear
12:55 AM 40.8 °F 36.9 °F 23.5 °F 50% 30.22 in 10.0 mi NNE 5.8 mph - N/A   Clear
1:15 AM 40.3 °F 36.3 °F 23.7 °F 52% 30.22 in 10.0 mi NNE 5.8 mph - N/A   Clear
1:35 AM 40.5 °F 35.8 °F 24.1 °F 52% 30.23 in 10.0 mi NNE 6.9 mph - N/A   Clear
1:55 AM 39.7 °F 35.6 °F 24.3 °F 54% 30.23 in 10.0 mi NNE 5.8 mph - N/A   Clear
2:15 AM 39.6 °F 36.3 °F 24.4 °F 55% 30.24 in 10.0 mi NNE 4.6 mph - N/A   Clear
2:35 AM 39.6 °F 34.7 °F 24.4 °F 55% 30.23 in 10.0 mi NNE 6.9 mph - N/A   Clear
2:55 AM 39.2 °F 35.0 °F 24.6 °F 56% 30.24 in 10.0 mi NNE 5.8 mph - N/A   Clear
3:15 AM 39.2 °F 35.9 °F 24.8 °F 56% 30.24 in 10.0 mi NNE 4.6 mph - N/A   Clear
3:35 AM 39.7 °F 35.6 °F 25.2 °F 56% 30.24 in 10.0 mi NNE 5.8 mph - N/A   Clear
3:55 AM 39.4 °F 34.5 °F 25.3 °F 57% 30.23 in 10.0 mi NNE 6.9 mph - N/A   Clear
4:15 AM 39.6 °F 35.4 °F 25.5 °F 57% 30.23 in 10.0 mi NNE 5.8 mph - N/A   Clear
4:35 AM 40.1 °F 34.7 °F 25.2 °F 55% 30.25 in 10.0 mi North 8.1 mph - N/A   Clear
4:55 AM 39.7 °F 34.9 °F 25.3 °F 56% 30.26 in 10.0 mi North 6.9 mph - N/A   Clear
5:15 AM 39.6 °F 35.4 °F 25.7 °F 58% 30.27 in 10.0 mi North 5.8 mph - N/A   Clear
5:35 AM 39.2 °F 34.2 °F 25.7 °F 58% 30.28 in 10.0 mi NNE 6.9 mph - N/A   Clear
5:55 AM 38.5 °F 32.1 °F 25.7 °F 60% 30.28 in 10.0 mi NNE 9.2 mph - N/A   Clear
6:15 AM 38.1 °F 32.3 °F 26.1 °F 62% 30.28 in 10.0 mi NNE 8.1 mph - N/A   Clear
6:35 AM 37.6 °F 31.6 °F 26.2 °F 64% 30.28 in 10.0 mi NNE 8.1 mph - N/A   Clear
6:55 AM 37.4 °F 30.3 °F 26.6 °F 65% 30.28 in 10.0 mi NNE 10.4 mph - N/A   Clear
7:15 AM 36.9 °F 30.1 °F 27.1 °F 68% 30.27 in 10.0 mi NNE 9.2 mph - N/A   Clear
7:35 AM 36.5 °F 29.7 °F 27.5 °F 70% 30.28 in 10.0 mi NNE 9.2 mph - N/A   Clear
7:55 AM 36.5 °F 29.2 °F 30.0 °F 77% 30.28 in 10.0 mi NE 10.4 mph 18.4 mph N/A   Clear
8:15 AM 36.5 °F 28.7 °F 31.1 °F 81% 30.28 in 10.0 mi NNE 11.5 mph - N/A   Clear
8:35 AM 36.5 °F 29.2 °F 31.8 °F 83% 30.29 in 10.0 mi NNE 10.4 mph - N/A   Clear
8:55 AM 36.9 °F 30.1 °F 32.0 °F 83% 30.30 in 10.0 mi NNE 9.2 mph - N/A   Mostly Cloudy
9:15 AM 37.0 °F 30.4 °F 32.0 °F 82% 30.29 in 10.0 mi NNE 9.2 mph - N/A   Overcast
9:35 AM 37.0 °F 30.4 °F 32.0 °F 82% 30.29 in 10.0 mi NNE 9.2 mph - N/A   Overcast
9:55 AM 37.8 °F 31.8 °F 32.0 °F 80% 30.28 in 7.0 mi NNE 8.1 mph - N/A   Scattered Clouds
10:15 AM 38.5 °F 31.6 °F 32.2 °F 78% 30.27 in 7.0 mi NNE 10.4 mph - N/A   Clear
10:35 AM 38.7 °F 31.8 °F 32.2 °F 78% 30.28 in 7.0 mi NNE 10.4 mph - N/A   Mostly Cloudy
10:55 AM 39.6 °F 33.5 °F 32.5 °F 76% 30.28 in 7.0 mi NNE 9.2 mph - N/A   Mostly Cloudy
11:15 AM 40.6 °F 33.8 °F 33.1 °F 74% 30.27 in 10.0 mi NE 11.5 mph - N/A   Mostly Cloudy
11:35 AM 40.3 °F 33.9 °F 32.9 °F 75% 30.26 in 10.0 mi NNE 10.4 mph - N/A   Scattered Clouds
11:55 AM 41.0 °F 35.2 °F 33.3 °F 74% 30.25 in 10.0 mi NNE 9.2 mph - N/A   Scattered Clouds
12:15 PM 40.8 °F 35.0 °F 33.1 °F 74% 30.24 in 10.0 mi NE 9.2 mph - N/A   Scattered Clouds
12:35 PM 41.0 °F 35.8 °F 33.3 °F 74% 30.22 in 7.0 mi NE 8.1 mph - N/A   Overcast
12:55 PM 41.2 °F 34.1 °F 33.3 °F 73% 30.21 in 7.0 mi NNE 12.7 mph - N/A   Scattered Clouds
1:15 PM 40.6 °F 34.3 °F 33.8 °F 77% 30.20 in 7.0 mi NNE 10.4 mph - N/A Rain Light Rain
1:35 PM 39.9 °F 34.5 °F 34.9 °F 82% 30.20 in 5.0 mi NE 8.1 mph - N/A Rain Light Rain
1:55 PM 39.4 °F 33.8 °F 35.8 °F 87% 30.18 in 4.0 mi NNE 8.1 mph - 0.02 in Rain Rain
2:15 PM 39.2 °F 34.2 °F 36.1 °F 89% 30.19 in 4.0 mi ENE 6.9 mph - 0.01 in Rain Light Rain
2:35 PM 38.8 °F 35.4 °F 36.1 °F 90% 30.18 in 4.0 mi NNE 4.6 mph - 0.02 in Rain Rain
2:55 PM 38.7 °F 34.3 °F 36.5 °F 92% 30.18 in 3.0 mi NE 5.8 mph - 0.03 in Rain Light Rain
3:15 PM 38.3 °F 33.2 °F 36.5 °F 93% 30.17 in 2.5 mi NNE 6.9 mph - 0.01 in Rain Light Rain
3:35 PM 37.9 °F 32.1 °F 36.3 °F 94% 30.17 in 2.5 mi NNE 8.1 mph - 0.02 in Rain Light Rain
3:55 PM 37.8 °F 31.8 °F 36.1 °F 94% 30.16 in 2.5 mi NNE 8.1 mph - 0.02 in Rain Light Rain
4:15 PM 37.6 °F 31.6 °F 36.0 °F 94% 30.16 in 3.0 mi NNE 8.1 mph - 0.01 in Rain Light Rain
4:35 PM 37.6 °F 30.5 °F 36.0 °F 94% 30.15 in 2.5 mi NNE 10.4 mph - 0.01 in Rain Light Rain
4:55 PM 37.4 °F 30.3 °F 35.8 °F 94% 30.14 in 3.0 mi NNE 10.4 mph - 0.02 in Rain Light Rain
5:15 PM 37.0 °F 28.9 °F 35.6 °F 95% 30.12 in 3.0 mi NNE 12.7 mph 18.4 mph N/A Rain Light Rain
5:35 PM 36.9 °F 28.7 °F 35.2 °F 94% 30.12 in 3.0 mi NNE 12.7 mph - 0.01 in Rain Light Rain
5:55 PM 36.9 °F 29.1 °F 35.2 °F 94% 30.12 in 3.0 mi NNE 11.5 mph 19.6 mph 0.01 in Rain Light Rain
6:15 PM 36.9 °F 29.6 °F 35.6 °F 95% 30.11 in 4.0 mi NNE 10.4 mph - 0.01 in Rain Light Rain
6:35 PM 36.9 °F 28.7 °F 35.6 °F 95% 30.11 in 4.0 mi NNE 12.7 mph - 0.01 in Rain Light Rain
6:55 PM 36.7 °F 28.9 °F 35.2 °F 95% 30.11 in 4.0 mi NNE 11.5 mph - 0.02 in Rain Light Rain
7:15 PM 36.7 °F 29.9 °F 35.2 °F 95% 30.11 in 4.0 mi NE 9.2 mph - N/A Rain Light Rain
7:35 PM 36.7 °F 29.4 °F 35.2 °F 95% 30.10 in 4.0 mi NNE 10.4 mph - N/A Rain Light Rain
7:55 PM 36.7 °F 30.5 °F 35.2 °F 95% 30.09 in 4.0 mi NNE 8.1 mph - 0.01 in Rain Light Rain
8:15 PM 36.5 °F 28.7 °F 35.2 °F 95% 30.08 in 4.0 mi NNE 11.5 mph - 0.01 in Rain Rain
8:35 PM 36.5 °F 29.7 °F 35.2 °F 95% 30.09 in 4.0 mi NNE 9.2 mph - 0.02 in Rain Light Rain
8:55 PM 36.5 °F 31.0 °F 35.2 °F 95% 30.09 in 3.0 mi NNE 6.9 mph - 0.04 in Rain Rain
9:15 PM 36.5 °F 31.0 °F 35.1 °F 95% 30.09 in 4.0 mi NNE 6.9 mph - 0.02 in Rain Rain
9:35 PM 36.5 °F 30.3 °F 35.1 °F 95% 30.08 in 3.0 mi NNE 8.1 mph - 0.04 in Rain Rain
9:55 PM 36.5 °F 29.7 °F 35.1 °F 95% 30.06 in 3.0 mi NNE 9.2 mph - 0.07 in Rain Rain
10:15 PM 36.5 °F 29.7 °F 35.2 °F 95% 30.06 in 3.0 mi NNE 9.2 mph - 0.02 in Rain Rain
10:35 PM 36.5 °F 30.3 °F 35.1 °F 95% 30.05 in 4.0 mi NNE 8.1 mph - 0.04 in Rain Rain
10:55 PM 36.5 °F 29.7 °F 35.1 °F 95% 30.04 in 4.0 mi North 9.2 mph - 0.06 in Rain Rain
11:15 PM 36.5 °F 31.0 °F 35.2 °F 95% 30.04 in 4.0 mi North 6.9 mph - 0.02 in Rain Rain
11:35 PM 36.5 °F 30.3 °F 35.6 °F 97% 30.03 in 4.0 mi NNE 8.1 mph - 0.03 in Rain Light Rain
11:55 PM 36.5 °F 30.3 °F 35.6 °F 97% 30.02 in 4.0 mi North 8.1 mph - 0.03 in Rain Light Rain